Orange, TX

4:32 PM CST on February 23, 2017 (GMT -0600)
Orange County

Weather History for KORG - February, 2013

Change the Weather History Date:

Sunday, February 24, 2013

  Actual Average Record
Temperature  
Mean Temperature 55 °F -  
Max Temperature 68 °F 65 °F 80 °F (1977)
Min Temperature 42 °F 41 °F 25 °F (1968)
Degree Days  
Heating Degree Days 10    
Growing Degree Days 5 (Base 50)    
Moisture  
Dew Point 50 °F    
Average Humidity 81    
Maximum Humidity 100    
Minimum Humidity 49    
Precipitation  
Precipitation 0.00 in - - ()
Sea Level Pressure  
Sea Level Pressure 29.88 in    
Wind  
Wind Speed 5 mph (ENE)    
Max Wind Speed 13 mph    
Max Gust Speed 17 mph    
Visibility 10 miles    
Events Rain , Thunderstorm    
Averages and records for this station are not official NWS values.
T = Trace of Precipitation, MM = Missing Value Source: NWS Daily Summary

Daily Weather History Graph

Daily Weather History Graph

Search for Another Location

Airport or City:

Trip Planner

Search our weather history database for the weather conditions in past years. The results will help you decide how hot, cold, wet, or windy it might be!

Date:

Astronomy

Feb. 24, 2013 Rise Set
Actual Time 6:46 AM CST 6:10 PM CST
Civil Twilight 6:22 AM CST 6:35 PM CST
Nautical Twilight 5:54 AM CST 7:02 PM CST
Astronomical Twilight 5:26 AM CST 7:30 PM CST
Moon 5:22 PM CST (2/24) 5:42 AM CST (2/24)
Length of Visible Light 12h 13m
Length of Day
11h 24m
Waxing Gibbous, 99% of the Moon is Illuminated
Feb 24
Waxing Gibbous
Feb 25
Full
Mar 4
Last Quarter
Mar 11
New
Mar 19
First Quarter

Hourly Weather History & Observations

Time (CST) Temp. Windchill Dew Point Humidity Pressure Visibility Wind Dir Wind Speed Gust Speed Precip Events Conditions
12:15 AM 46.4 °F - 46.4 °F 100% 29.97 in 10.0 mi Calm Calm - N/A   Clear
12:35 AM 48.2 °F - 48.2 °F 100% 29.98 in 10.0 mi Calm Calm - N/A   Clear
12:55 AM 50.0 °F - 48.2 °F 94% 29.98 in 10.0 mi Calm Calm - N/A   Clear
1:15 AM 50.0 °F - 46.4 °F 87% 29.98 in 10.0 mi ENE 5.8 mph - N/A   Clear
1:35 AM 50.0 °F - 46.4 °F 87% 29.97 in 10.0 mi ENE 4.6 mph - N/A   Clear
1:55 AM 50.0 °F - 46.4 °F 87% 29.96 in 10.0 mi ENE 4.6 mph - N/A   Clear
2:15 AM 50.0 °F - 46.4 °F 87% 29.95 in 10.0 mi ENE 6.9 mph - N/A   Clear
2:35 AM 50.0 °F - 46.4 °F 87% 29.95 in 10.0 mi ENE 5.8 mph - N/A   Clear
2:55 AM 48.2 °F - 46.4 °F 93% 29.93 in 10.0 mi ENE 3.5 mph - N/A   Clear
3:15 AM 46.4 °F 45.2 °F 44.6 °F 93% 29.94 in 10.0 mi ENE 3.5 mph - N/A   Clear
3:35 AM 46.4 °F - 44.6 °F 93% 29.93 in 10.0 mi Calm Calm - N/A   Clear
3:55 AM 46.4 °F - 44.6 °F 93% 29.92 in 10.0 mi Calm Calm - N/A   Clear
4:15 AM 44.6 °F 42.2 °F 44.6 °F 100% 29.92 in 10.0 mi ENE 4.6 mph - N/A   Clear
4:35 AM 44.6 °F - 44.6 °F 100% 29.92 in 10.0 mi Calm Calm - N/A   Clear
4:55 AM 44.6 °F 42.2 °F 44.6 °F 100% 29.92 in 10.0 mi NNE 4.6 mph - N/A   Clear
5:15 AM 44.6 °F - 42.8 °F 93% 29.93 in 10.0 mi Calm Calm - N/A   Clear
5:35 AM 44.6 °F - 44.6 °F 100% 29.94 in 10.0 mi Calm Calm - N/A   Clear
5:55 AM 44.6 °F - 44.6 °F 100% 29.94 in 10.0 mi Calm Calm - N/A   Clear
6:15 AM 44.6 °F 43.1 °F 44.6 °F 100% 29.95 in 10.0 mi North 3.5 mph - N/A   Clear
6:35 AM 42.8 °F - 42.8 °F 100% 29.95 in 10.0 mi Calm Calm - N/A   Clear
6:55 AM 42.8 °F - 42.8 °F 100% 29.95 in 10.0 mi Calm Calm - N/A   Clear
7:15 AM 42.8 °F - 42.8 °F 100% 29.96 in 10.0 mi Calm Calm - N/A   Clear
7:35 AM 44.6 °F - 44.6 °F 100% 29.96 in 10.0 mi Calm Calm - N/A   Clear
7:55 AM 48.2 °F - 46.4 °F 93% 29.97 in 10.0 mi ENE 5.8 mph - N/A   Clear
8:15 AM 50.0 °F - 46.4 °F 87% 29.98 in 10.0 mi ENE 6.9 mph - N/A   Clear
8:35 AM 51.8 °F - 48.2 °F 88% 29.97 in 10.0 mi ENE 10.4 mph - N/A   Clear
8:55 AM 53.6 °F - 50.0 °F 88% 29.97 in 10.0 mi East 11.5 mph 16.1 mph N/A   Clear
9:15 AM 55.4 °F - 50.0 °F 82% 29.97 in 10.0 mi East 9.2 mph - N/A   Clear
9:35 AM 57.2 °F - 51.8 °F 82% 29.98 in 10.0 mi East 10.4 mph - N/A   Clear
9:55 AM 59.0 °F - 51.8 °F 77% 29.98 in 10.0 mi ENE 10.4 mph - N/A   Clear
10:15 AM 60.8 °F - 51.8 °F 72% 29.98 in 10.0 mi East 8.1 mph - N/A   Clear
10:35 AM 60.8 °F - 51.8 °F 72% 29.97 in 10.0 mi East 9.2 mph - N/A   Clear
10:55 AM 60.8 °F - 53.6 °F 77% 29.97 in 10.0 mi East 10.4 mph - N/A   Clear
11:15 AM 62.6 °F - 53.6 °F 72% 29.96 in 10.0 mi ENE 9.2 mph 17.3 mph N/A   Clear
11:35 AM 64.4 °F - 53.6 °F 68% 29.95 in 10.0 mi East 11.5 mph - N/A   Clear
11:55 AM 64.4 °F - 51.8 °F 64% 29.94 in 10.0 mi East 12.7 mph - N/A   Clear
12:15 PM 64.4 °F - 51.8 °F 64% 29.92 in 10.0 mi East 11.5 mph 17.3 mph N/A   Clear
12:35 PM 66.2 °F - 50.0 °F 56% 29.91 in 10.0 mi East 10.4 mph - N/A   Clear
12:55 PM 68.0 °F - 50.0 °F 52% 29.90 in 10.0 mi East 10.4 mph - N/A   Clear
1:15 PM 68.0 °F - 50.0 °F 52% 29.88 in 10.0 mi East 12.7 mph 17.3 mph N/A   Clear
1:35 PM 68.0 °F - 48.2 °F 49% 29.87 in 10.0 mi East 10.4 mph - N/A   Clear
1:55 PM 66.2 °F - 46.4 °F 49% 29.87 in 10.0 mi East 9.2 mph - N/A   Mostly Cloudy
2:15 PM 64.4 °F - 48.2 °F 56% 29.85 in 10.0 mi East 10.4 mph - N/A   Mostly Cloudy
2:35 PM 64.4 °F - 48.2 °F 56% - 10.0 mi North - - N/A   Scattered Clouds
2:55 PM 66.2 °F - 50.0 °F 56% 29.83 in 10.0 mi ENE 8.1 mph - N/A   Scattered Clouds
3:15 PM 66.2 °F - 50.0 °F 56% 29.82 in 10.0 mi East 10.4 mph - N/A   Scattered Clouds
3:35 PM 68.0 °F - 50.0 °F 52% 29.82 in 10.0 mi ENE 9.2 mph - N/A   Clear
3:55 PM 68.0 °F - 51.8 °F 56% 29.80 in 10.0 mi East 11.5 mph - N/A   Scattered Clouds
4:15 PM 64.4 °F - 51.8 °F 64% 29.80 in 10.0 mi East 11.5 mph - N/A   Mostly Cloudy
4:35 PM 64.4 °F - 51.8 °F 64% 29.80 in 10.0 mi East 9.2 mph - N/A   Mostly Cloudy
4:55 PM 64.4 °F - 53.6 °F 68% 29.79 in 10.0 mi East 9.2 mph - N/A Rain Light Rain
5:15 PM 62.6 °F - 55.4 °F 77% 29.79 in 10.0 mi East 8.1 mph - N/A   Mostly Cloudy
5:35 PM 62.6 °F - 55.4 °F 77% 29.77 in 10.0 mi ENE 6.9 mph - N/A   Overcast
5:55 PM 62.6 °F - 55.4 °F 77% 29.79 in 10.0 mi ENE 4.6 mph - N/A   Overcast
6:15 PM 62.6 °F - 55.4 °F 77% 29.77 in 10.0 mi NE 5.8 mph - N/A Thunderstorm Overcast
6:35 PM 62.6 °F - 53.6 °F 72% 29.78 in 10.0 mi ENE 3.5 mph - N/A   Overcast
6:55 PM 62.6 °F - 55.4 °F 77% 29.77 in 10.0 mi NE 4.6 mph - N/A   Overcast
7:15 PM 62.6 °F - 55.4 °F 77% 29.78 in 10.0 mi ENE 5.8 mph - N/A   Overcast
7:35 PM 60.8 °F - 55.4 °F 82% 29.77 in 10.0 mi NE 6.9 mph - N/A   Drizzle
7:55 PM 60.8 °F - 55.4 °F 82% 29.77 in 10.0 mi Calm Calm - N/A Rain Light Rain
8:15 PM 60.8 °F - 57.2 °F 88% 29.77 in 10.0 mi Calm Calm - N/A Rain Light Rain
8:35 PM 60.8 °F - 55.4 °F 82% 29.76 in 10.0 mi North 3.5 mph - N/A Rain Light Rain
8:55 PM 60.8 °F - 57.2 °F 88% 29.75 in 10.0 mi NE 4.6 mph - N/A   Drizzle
9:15 PM 60.8 °F - 55.4 °F 82% 29.76 in 10.0 mi East 4.6 mph - N/A   Overcast
9:35 PM 60.8 °F - 57.2 °F 88% 29.74 in 10.0 mi ENE 6.9 mph - N/A   Overcast
9:55 PM 60.8 °F - 57.2 °F 88% 29.74 in 10.0 mi ENE 6.9 mph - N/A   Overcast
10:15 PM 60.8 °F - 59.0 °F 94% 29.74 in 10.0 mi NE 4.6 mph - N/A   Overcast
10:35 PM 60.8 °F - 59.0 °F 94% 29.73 in 10.0 mi ENE 8.1 mph - N/A   Overcast
10:55 PM 60.8 °F - 59.0 °F 94% 29.73 in 10.0 mi ENE 6.9 mph - N/A   Overcast
11:15 PM 60.8 °F - 59.0 °F 94% 29.73 in 10.0 mi ENE 6.9 mph - N/A   Overcast
11:35 PM 60.8 °F - 60.8 °F 100% 29.72 in 10.0 mi ENE 5.8 mph - N/A   Overcast